Weather History for Appleton, WI

Change the Weather History Date:

Friday, January 4, 2013

  Actual Average Record
Temperature  
Mean Temperature 18 °F -  
Max Temperature 28 °F 22 °F 44 °F (2007)
Min Temperature 8 °F 6 °F -15 °F (1968)
Degree Days  
Heating Degree Days 47    
Moisture  
Dew Point 11 °F    
Average Humidity 80    
Maximum Humidity 93    
Minimum Humidity 64    
Precipitation  
Precipitation 0.00 in - - ()
Sea Level Pressure  
Sea Level Pressure 30.05 in    
Wind  
Wind Speed 14 mph (WSW)    
Max Wind Speed 18 mph    
Max Gust Speed 23 mph    
Visibility 10 miles    
Events      
Averages and records for this station are not official NWS values.
T = Trace of Precipitation, MM = Missing Value Source: NWS Daily Summary

Daily Weather History Graph

Daily Weather History Graph

Search for Another Location

Airport:

Trip Planner

Search our weather history database for the weather conditions in past years. The results will help you decide how hot, cold, wet, or windy it might be!

Date:

Astronomy

Jan. 04, 2013 Rise Set
Actual Time 7:29 AM CST 4:28 PM CST
Civil Twilight 6:56 AM CST 5:01 PM CST
Nautical Twilight 6:20 AM CST 5:38 PM CST
Astronomical Twilight 5:45 AM CST 6:13 PM CST
Moon No Moon Rise 10:55 AM CST (1/4)
Length of Visible Light 10h 05m
Length of Day
8h 59m
Waning Gibbous, 55% of the Moon is Illuminated
Jan 4
Waning Gibbous
Jan 4
Last Quarter
Jan 11
New
Jan 18
First Quarter
Jan 26
Full

Hourly Weather History & Observations

Time (CST) Temp. Windchill Dew Point Humidity Pressure Visibility Wind Dir Wind Speed Gust Speed Precip Events Conditions
12:15 AM 14.0 °F -2.5 °F 8.6 °F 79% 30.05 in 10.0 mi WSW 17.3 mph 21.9 mph N/A   Clear
12:35 AM 12.2 °F -4.3 °F 8.6 °F 85% 30.04 in 10.0 mi WSW 16.1 mph 21.9 mph N/A   Clear
12:55 AM 12.2 °F -3.7 °F 8.6 °F 85% 30.04 in 10.0 mi WSW 15.0 mph 23.0 mph N/A   Clear
1:35 AM 12.2 °F -4.8 °F 6.8 °F 79% 30.03 in 10.0 mi WSW 17.3 mph 23.0 mph N/A   Clear
1:55 AM 12.2 °F -4.3 °F 6.8 °F 79% 30.03 in 10.0 mi WSW 16.1 mph - N/A   Clear
2:15 AM 10.4 °F -5.4 °F 6.8 °F 85% 30.03 in 10.0 mi WSW 13.8 mph 19.6 mph N/A   Clear
2:35 AM 10.4 °F -6.6 °F 6.8 °F 85% 30.03 in 10.0 mi WSW 16.1 mph - N/A   Clear
2:55 AM 10.4 °F -7.2 °F 6.8 °F 85% 30.01 in 10.0 mi WSW 17.3 mph - N/A   Clear
3:15 AM 10.4 °F -7.2 °F 6.8 °F 85% 30.00 in 10.0 mi WSW 17.3 mph - N/A   Clear
5:45 AM 8.6 °F -7.7 °F 6.8 °F 92% 29.99 in 10.0 mi WSW 13.8 mph - N/A   Clear
7:45 AM 10.4 °F -6.6 °F 8.6 °F 92% 29.98 in 10.0 mi WSW 16.1 mph - N/A   Clear
8:45 AM 12.2 °F -3.7 °F 8.6 °F 85% 29.99 in 10.0 mi WSW 15.0 mph - N/A   Clear
9:45 AM 15.8 °F 1.4 °F 10.4 °F 79% 30.00 in 10.0 mi WSW 13.8 mph - N/A   Clear
10:45 AM 17.6 °F 5.0 °F 12.2 °F 79% 30.01 in 10.0 mi WSW 11.5 mph - N/A   Clear
11:45 AM 24.8 °F 11.1 °F 15.8 °F 69% 29.99 in 10.0 mi West 18.4 mph 23.0 mph N/A   Clear
12:45 PM 26.6 °F 16.2 °F 17.6 °F 69% 29.99 in 10.0 mi WSW 11.5 mph 20.7 mph N/A   Clear
1:45 PM 28.4 °F 16.2 °F 17.6 °F 64% 29.99 in 10.0 mi West 17.3 mph 20.7 mph N/A   Clear
2:45 PM 28.4 °F 17.0 °F 17.6 °F 64% 30.00 in 10.0 mi WSW 15.0 mph 20.7 mph N/A   Clear
3:45 PM 28.4 °F 17.5 °F 17.6 °F 64% 30.02 in 10.0 mi WSW 13.8 mph - N/A   Clear
4:45 PM 26.6 °F 16.2 °F 17.6 °F 69% 30.04 in 10.0 mi WSW 11.5 mph - N/A   Clear
6:45 PM 24.8 °F 14.6 °F 15.8 °F 69% 30.10 in 10.0 mi WSW 10.4 mph - N/A   Clear
8:45 PM 21.2 °F 9.5 °F 14.0 °F 74% 30.10 in 10.0 mi WSW 11.5 mph - N/A   Clear
9:55 PM 17.6 °F - 12.2 °F 79% 30.12 in 10.0 mi Calm Calm - N/A   Clear
10:15 PM 17.6 °F - 12.2 °F 79% 30.12 in 10.0 mi Calm Calm - N/A   Clear
10:35 PM 17.6 °F - 14.0 °F 86% 30.12 in 10.0 mi Calm Calm - N/A   Clear
10:45 PM 17.6 °F 12.3 °F 12.2 °F 79% 30.12 in 10.0 mi Variable 3.5 mph - N/A   Clear
10:55 PM 14.0 °F 6.5 °F 10.4 °F 86% 30.13 in 10.0 mi South 4.6 mph - N/A   Clear
11:15 PM 14.0 °F 6.5 °F 12.2 °F 93% 30.14 in 10.0 mi South 4.6 mph - N/A   Clear
11:35 PM 14.0 °F 8.2 °F 12.2 °F 93% 30.14 in 10.0 mi SW 3.5 mph - N/A   Clear
11:55 PM 14.0 °F - 10.4 °F 86% 30.15 in 10.0 mi Calm Calm - N/A   Clear